Flag for Germany Weather for the Past 2 Weeks in Landau in der Pfalz, Rhineland-Palatinate, Germany

Now
55 °F

Passing clouds.


Feels Like: 51 °F
Forecast: 43 / 65 °F
Wind: 16 mph from North

Location: Mannheim City

Current Time: May 1, 2016 at 12:19:26 PM

Latest Report: May 1, 2016 at 11:50 AM


Visibility: N/A

Pressure: 30.09 "Hg

Humidity: 63%

Dew Point: 43 °F

Location of Landau in der PfalzLocation

Historic Weather in Landau in der Pfalz — Graph

°F

Landau in der Pfalz Temperature Yesterday

Maximum temperature yesterday: 64 °F (at 3:20 PM)
Minimum temperature yesterday: 43 °F (at 7:50 AM)
Average temperature yesterday: 57 °F

High & Low Weather Summary for the Past Weeks

 TemperatureHumidityPressure
High72 °F (Apr 21, 4:50 PM)100% (Apr 17, 7:50 AM)30.42 "Hg (Apr 17, 7:50 AM)
Low36 °F (Apr 25, 6:50 AM)23% (Apr 21, 4:50 PM)29.59 "Hg (Apr 26, 5:50 AM)
Average50 °F60%30.00 "Hg
* Reported Apr 16 10:20 AM — May 1 10:50 AM, Landau in der Pfalz, Weather by CustomWeather, © 2016

Note: Actual official high and low records may vary slightly from our data, if they occured in-between our weather recording intervals... More about our weather records

Advertising

Landau in der Pfalz Weather History for the Previous 24 Hours

Scroll right to see more
 ConditionsComfort  
Time TempWeatherWind HumidityBarometerVisibility
10:50 AM
Sun, May 1
54 °FPassing clouds.16 mph63%30.09 "HgN/A
10:20 AM52 °FPassing clouds.16 mph67%30.07 "HgN/A
9:50 AM52 °FScattered clouds.16 mph67%30.07 "HgN/A
8:50 AM48 °FPassing clouds.16 mph76%30.07 "HgN/A
8:20 AM46 °FPassing clouds.16 mph76%30.07 "HgN/A
7:50 PM
Sat, Apr 30
57 °FPassing clouds.15 mph55%29.95 "HgN/A
7:20 PM57 °FPassing clouds.15 mph55%29.95 "HgN/A
6:50 PM59 °FSunny.13 mph39%29.95 "Hg10 mi
6:20 PM61 °FSunny.12 mph36%29.95 "Hg10 mi
5:50 PM63 °FSunny.14 mph37%29.95 "Hg10 mi
5:20 PM64 °FPassing clouds.12 mph32%29.95 "HgN/A
4:50 PM64 °FPassing clouds.9 mph34%29.95 "HgN/A
4:20 PM64 °FSunny.3 mph34%29.95 "Hg10 mi
3:50 PM63 °FSunny.5 mph37%29.95 "Hg10 mi
3:20 PM64 °FPassing clouds.5 mph32%29.98 "HgN/A
2:50 PM63 °FPassing clouds.5 mph32%29.98 "HgN/A
2:20 PM61 °FSunny.3 mph34%29.98 "Hg10 mi
1:50 PM59 °FSunny.3 mph36%30.01 "Hg10 mi
1:20 PM59 °FPassing clouds.5 mph36%30.01 "HgN/A
12:50 PM61 °FSunny.3 mph36%30.01 "Hg10 mi
12:20 PM57 °FSunny.2 mph44%30.01 "Hg10 mi
Weather by CustomWeather, © 2016

See weather overviewHow to use our weather pages